Powrót do katalogu

STARLINK-35201

AktywnyŁącznośćSSO
NORAD 65664·PAYLOAD·🇺🇸 United States

Wystrzelony Sep 19, 2025 z Vandenberg Space Force Base

Loading…

Następne Przeloty (najbliższe 24 godziny)

TLE

ŚwieżeSource: CelesTrak SupGP

Epoka: Sep 15, 2026, 02:32 UTC

1 65664C 25211N   26258.10604167  .00029901  00000+0  92770-3 0  2582
2 65664  97.2813 298.4281 0000773 125.0914  15.9175 15.33441465    17

Śledź STARLINK-35201 w czasie rzeczywistym z AllMySat

Download on the App Store